Precipitable_Water
1.57 1.57 1.62 1.62 1.64 1.67 1.72 1.75 1.74 1.76 1.75 1.76 1.76 1.73 1.75 1.86 1.87 1.82 1.81 1.74 1.78 1.72 1.68 1.65 1.56 1.48 1.30 1.27 1.25 1.15 1.06 1.21 1.24 1.21 1.28 1.32 1.32 1.37 1.37 1.53 1.62 1.69 1.73 1.79 1.83 1.85 1.83 1.81 1.83 1.83 1.85 1.82 1.84 1.86 1.89 1.86 1.83 1.81 1.76 1.64 1.62 1.60 1.57 1.56 1.59 1.63 1.69 1.74 1.78 1.80 1.79 1.73 1.65 1.60 1.55 1.48 1.42 1.44 1.54 1.62 1.68 1.70 1.73 1.71 1.72
1.59 1.65 1.62 1.62 1.66 1.66 1.70 1.75 1.77 1.76 1.77 1.80 1.80 1.76 1.76 1.82 1.80 1.80 1.78 1.81 1.72 1.75 1.78 1.62 1.59 1.45 1.37 1.21 1.20 1.24 1.08 1.13 1.20 1.27 1.31 1.25 1.25 1.40 1.28 1.36 1.54 1.62 1.69 1.72 1.78 1.83 1.85 1.87 1.86 1.84 1.82 1.82 1.83 1.83 1.85 1.88 1.86 1.86 1.85 1.86 1.75 1.68 1.66 1.63 1.60 1.62 1.69 1.74 1.79 1.80 1.79 1.75 1.76 1.71 1.67 1.67 1.64 1.58 1.52 1.49 1.54 1.62 1.68 1.71 1.72
1.64 1.64 1.65 1.65 1.66 1.67 1.73 1.79 1.75 1.80 1.82 1.79 1.83 1.79 1.78 1.81 1.76 1.83 1.81 1.77 1.75 1.72 1.75 1.65 1.53 1.43 1.38 1.31 1.25 1.17 1.14 1.13 1.21 1.23 1.28 1.21 1.24 1.36 1.44 1.26 1.40 1.52 1.60 1.68 1.74 1.78 1.82 1.86 1.88 1.88 1.85 1.84 1.83 1.83 1.82 1.82 1.87 1.88 1.86 1.87 1.86 1.84 1.75 1.69 1.68 1.67 1.66 1.67 1.69 1.72 1.72 1.72 1.74 1.77 1.74 1.74 1.74 1.74 1.72 1.68 1.64 1.60 1.59 1.62 1.65
1.62 1.63 1.65 1.67 1.69 1.72 1.75 1.73 1.75 1.80 1.83 1.82 1.81 1.83 1.77 1.82 1.82 1.87 1.88 1.81 1.78 1.75 1.73 1.68 1.48 1.43 1.42 1.43 1.38 1.22 1.12 1.11 1.28 1.27 1.21 1.16 1.20 1.28 1.46 1.46 1.32 1.38 1.50 1.61 1.71 1.76 1.79 1.84 1.86 1.88 1.80 1.81 1.81 1.80 1.78 1.83 1.83 1.83 1.82 1.83 1.83 1.84 1.86 1.81 1.69 1.70 1.72 1.70 1.67 1.66 1.70 1.74 1.76 1.78 1.79 1.79 1.79 1.78 1.76 1.75 1.74 1.74 1.75 1.72 1.71
1.60 1.60 1.63 1.66 1.71 1.71 1.72 1.71 1.75 1.80 1.81 1.81 1.76 1.75 1.76 1.75 1.77 1.79 1.82 1.82 1.74 1.71 1.71 1.68 1.46 1.44 1.44 1.43 1.33 1.18 1.14 1.09 1.10 1.21 1.26 1.27 1.24 1.33 1.41 1.46 1.75 1.40 1.42 1.54 1.61 1.71 1.75 1.80 1.83 1.84 1.81 1.78 1.76 1.75 1.73 1.79 1.83 1.84 1.83 1.79 1.83 1.86 1.86 1.86 1.79 1.73 1.71 1.69 1.69 1.64 1.65 1.69 1.71 1.74 1.77 1.78 1.78 1.79 1.78 1.78 1.76 1.75 1.74 1.75 1.78
1.61 1.61 1.62 1.65 1.69 1.70 1.69 1.71 1.76 1.77 1.77 1.74 1.70 1.71 1.66 1.69 1.67 1.64 1.65 1.64 1.62 1.63 1.64 1.52 1.51 1.46 1.41 1.41 1.36 1.22 1.13 1.10 1.09 1.21 1.16 1.26 1.33 1.32 1.42 1.44 1.56 1.68 1.51 1.42 1.51 1.58 1.73 1.77 1.80 1.82 1.79 1.77 1.77 1.75 1.76 1.74 1.79 1.84 1.84 1.78 1.79 1.81 1.84 1.87 1.86 1.83 1.79 1.75 1.71 1.73 1.73 1.71 1.68 1.70 1.72 1.73 1.75 1.75 1.73 1.72 1.69 1.66 1.66 1.68 1.71
1.60 1.59 1.58 1.62 1.68 1.69 1.70 1.74 1.76 1.76 1.71 1.74 1.66 1.68 1.62 1.59 1.66 1.58 1.61 1.68 1.67 1.60 1.62 1.48 1.46 1.41 1.36 1.39 1.32 1.21 1.18 1.09 1.09 1.18 1.15 1.24 1.30 1.42 1.49 1.44 1.66 1.58 1.57 1.74 1.48 1.47 1.53 1.65 1.75 1.81 1.81 1.82 1.79 1.75 1.80 1.81 1.80 1.76 1.76 1.77 1.79 1.77 1.78 1.83 1.85 1.85 1.84 1.83 1.80 1.76 1.75 1.72 1.74 1.72 1.76 1.78 1.78 1.75 1.71 1.68 1.67 1.66 1.63 1.62 1.61
1.56 1.56 1.53 1.58 1.65 1.71 1.74 1.77 1.74 1.70 1.70 1.71 1.68 1.65 1.68 1.59 1.59 1.58 1.51 1.54 1.58 1.54 1.61 1.52 1.47 1.39 1.36 1.34 1.35 1.20 1.18 1.11 1.17 1.26 1.27 1.23 1.32 1.42 1.49 1.48 1.50 1.48 1.37 1.51 1.64 1.54 1.39 1.43 1.53 1.66 1.74 1.80 1.80 1.77 1.77 1.79 1.77 1.73 1.76 1.79 1.77 1.76 1.74 1.77 1.80 1.83 1.84 1.84 1.83 1.79 1.77 1.75 1.76 1.76 1.76 1.79 1.84 1.86 1.83 1.81 1.78 1.74 1.65 1.58 1.56
1.54 1.57 1.54 1.54 1.63 1.69 1.73 1.72 1.73 1.67 1.66 1.66 1.64 1.69 1.65 1.61 1.63 1.55 1.50 1.43 1.44 1.44 1.52 1.51 1.46 1.41 1.38 1.34 1.31 1.20 1.17 1.14 1.25 1.27 1.29 1.26 1.27 1.43 1.41 1.43 1.40 1.38 1.49 1.58 1.53 1.75 1.63 1.42 1.41 1.49 1.61 1.70 1.75 1.76 1.75 1.74 1.73 1.78 1.77 1.77 1.78 1.75 1.75 1.76 1.76 1.77 1.81 1.86 1.85 1.81 1.80 1.77 1.77 1.81 1.79 1.80 1.82 1.80 1.80 1.85 1.86 1.81 1.77 1.75 1.73
1.56 1.59 1.56 1.57 1.61 1.68 1.73 1.75 1.69 1.67 1.64 1.64 1.62 1.68 1.65 1.58 1.53 1.59 1.55 1.48 1.46 1.42 1.39 1.39 1.35 1.38 1.36 1.32 1.25 1.19 1.18 1.13 1.17 1.27 1.30 1.30 1.32 1.39 1.40 1.38 1.48 1.44 1.47 1.46 1.56 1.52 1.72 1.65 1.44 1.39 1.45 1.47 1.51 1.57 1.60 1.64 1.66 1.69 1.71 1.75 1.75 1.75 1.77 1.79 1.78 1.82 1.84 1.82 1.79 1.73 1.78 1.78 1.76 1.76 1.80 1.85 1.84 1.82 1.80 1.82 1.82 1.82 1.80 1.77 1.76
1.58 1.61 1.57 1.58 1.59 1.66 1.68 1.72 1.72 1.69 1.65 1.59 1.62 1.62 1.56 1.56 1.50 1.52 1.54 1.52 1.45 1.43 1.41 1.34 1.22 1.24 1.29 1.28 1.22 1.18 1.18 1.16 1.14 1.23 1.30 1.38 1.42 1.35 1.39 1.36 1.33 1.34 1.30 1.41 1.47 1.55 1.47 1.62 1.64 1.77 1.84 1.53 1.48 1.44 1.43 1.45 1.51 1.57 1.61 1.65 1.68 1.70 1.72 1.76 1.80 1.85 1.85 1.84 1.75 1.63 1.73 1.75 1.76 1.75 1.75 1.75 1.80 1.81 1.82 1.84 1.84 1.83 1.83 1.82 1.80
1.59 1.62 1.62 1.62 1.67 1.73 1.74 1.76 1.74 1.70 1.62 1.58 1.59 1.57 1.57 1.50 1.48 1.46 1.47 1.48 1.50 1.48 1.46 1.33 1.20 1.14 1.21 1.19 1.20 1.22 1.10 1.13 1.05 1.20 1.26 1.33 1.36 1.40 1.40 1.39 1.32 1.32 1.32 1.31 1.29 1.37 1.39 1.44 1.50 1.57 1.68 1.65 1.57 1.57 1.58 1.65 1.65 1.69 1.71 1.71 1.73 1.69 1.72 1.74 1.79 1.85 1.78 1.79 1.74 1.72 1.77 1.80 1.75 1.72 1.76 1.76 1.77 1.80 1.81 1.82 1.83 1.84 1.83 1.83 1.83
1.57 1.62 1.65 1.70 1.74 1.78 1.78 1.76 1.76 1.71 1.64 1.58 1.60 1.55 1.54 1.50 1.52 1.46 1.43 1.42 1.47 1.56 1.47 1.34 1.13 1.07 1.13 1.13 1.14 1.16 1.20 1.04 1.09 1.18 1.27 1.35 1.37 1.32 1.33 1.32 1.35 1.34 1.28 1.23 1.19 1.21 1.20 1.30 1.39 1.49 1.57 1.64 1.68 1.59 1.54 1.56 1.57 1.58 1.61 1.64 1.64 1.61 1.59 1.62 1.67 1.75 1.77 1.76 1.79 1.76 1.81 1.76 1.72 1.70 1.70 1.72 1.73 1.73 1.74 1.78 1.81 1.83 1.83 1.84 1.85
1.55 1.62 1.71 1.76 1.74 1.75 1.76 1.75 1.74 1.72 1.67 1.64 1.59 1.54 1.51 1.51 1.51 1.45 1.55 1.49 1.45 1.52 1.42 1.29 1.18 1.06 1.02 1.01 1.05 1.11 1.16 1.10 0.99 1.15 1.25 1.28 1.30 1.31 1.28 1.34 1.35 1.34 1.29 1.23 1.15 1.14 1.14 1.20 1.31 1.29 1.33 1.43 1.53 1.66 1.64 1.67 1.61 1.52 1.53 1.58 1.68 1.70 1.65 1.61 1.63 1.67 1.75 1.79 1.73 1.67 1.66 1.69 1.68 1.69 1.68 1.68 1.69 1.70 1.73 1.76 1.78 1.78 1.78 1.79 1.82
1.57 1.65 1.73 1.75 1.75 1.75 1.75 1.78 1.75 1.73 1.63 1.56 1.53 1.47 1.51 1.51 1.54 1.41 1.45 1.58 1.51 1.54 1.47 1.38 1.30 1.18 1.19 1.08 0.94 0.95 1.05 0.96 1.08 1.17 1.22 1.25 1.26 1.27 1.31 1.36 1.37 1.30 1.20 1.18 1.09 1.10 1.10 1.20 1.18 1.20 1.22 1.27 1.34 1.34 1.41 1.49 1.45 1.33 1.31 1.27 1.28 1.34 1.38 1.44 1.47 1.52 1.55 1.57 1.53 1.49 1.47 1.43 1.41 1.42 1.44 1.46 1.48 1.51 1.56 1.63 1.70 1.74 1.76 1.76 1.78
1.57 1.65 1.71 1.75 1.76 1.72 1.75 1.75 1.77 1.74 1.63 1.52 1.50 1.52 1.54 1.59 1.52 1.51 1.51 1.45 1.52 1.53 1.58 1.48 1.44 1.18 1.06 1.02 1.03 0.92 0.93 0.89 0.99 1.13 1.24 1.22 1.24 1.25 1.33 1.32 1.34 1.26 1.15 1.19 1.07 1.09 1.08 1.17 1.19 1.22 1.23 1.23 1.22 1.26 1.31 1.42 1.29 1.16 1.04 1.02 1.07 1.15 1.27 1.32 1.31 1.35 1.34 1.23 1.11 1.06 1.06 1.06 1.09 1.13 1.16 1.19 1.23 1.28 1.33 1.37 1.42 1.47 1.53 1.59 1.66
1.58 1.64 1.67 1.71 1.73 1.73 1.73 1.75 1.74 1.73 1.64 1.55 1.54 1.60 1.63 1.69 1.59 1.53 1.56 1.50 1.46 1.52 1.55 1.47 1.39 1.38 1.21 0.86 0.85 0.83 0.99 0.98 1.08 1.06 1.18 1.14 1.19 1.28 1.30 1.34 1.34 1.26 1.21 1.17 1.04 1.12 1.17 1.16 1.22 1.26 1.25 1.28 1.25 1.20 1.25 1.23 1.16 1.00 0.89 0.78 0.82 0.93 1.04 1.08 1.06 1.05 0.92 0.81 0.81 0.83 0.86 0.89 0.90 0.93 0.94 0.94 0.93 0.95 0.98 0.99 1.02 1.03 1.05 1.13 1.24
1.54 1.61 1.65 1.68 1.70 1.68 1.70 1.69 1.72 1.69 1.61 1.57 1.60 1.65 1.65 1.66 1.63 1.60 1.58 1.65 1.50 1.46 1.35 1.40 1.42 1.37 1.31 1.27 1.35 1.14 0.95 1.03 1.04 0.93 1.12 1.23 1.21 1.24 1.29 1.32 1.32 1.30 1.26 1.24 1.17 1.12 1.15 1.17 1.15 1.22 1.24 1.26 1.25 1.26 1.20 1.01 0.97 1.02 0.97 0.77 0.79 0.83 0.90 0.92 0.90 0.87 0.88 0.92 0.92 0.91 0.90 0.86 0.85 0.84 0.85 0.87 0.84 0.83 0.82 0.81 0.81 0.78 0.80 0.81 0.83
1.49 1.54 1.59 1.63 1.66 1.69 1.67 1.67 1.67 1.66 1.64 1.57 1.58 1.61 1.67 1.66 1.68 1.65 1.62 1.64 1.54 1.25 1.21 1.33 1.30 1.26 1.19 1.10 1.09 1.11 1.15 1.02 0.94 1.09 0.84 0.97 1.16 1.18 1.25 1.30 1.31 1.31 1.34 1.25 1.28 1.17 1.21 1.22 1.18 1.24 1.33 1.33 1.32 1.27 1.31 1.19 1.16 1.08 0.98 0.89 0.89 0.88 0.88 0.94 0.99 1.00 1.01 1.03 1.06 1.06 1.04 1.03 0.97 0.95 0.92 0.94 0.95 0.90 0.88 0.85 0.82 0.82 0.81 0.82 0.82
1.41 1.48 1.52 1.54 1.57 1.60 1.64 1.64 1.64 1.63 1.62 1.57 1.60 1.63 1.66 1.67 1.67 1.69 1.68 1.60 1.51 1.27 1.24 1.22 1.14 1.08 1.15 1.07 1.08 1.14 1.15 1.16 1.18 1.07 1.04 0.95 0.90 1.07 1.20 1.23 1.27 1.30 1.32 1.31 1.26 1.27 1.25 1.25 1.29 1.27 1.35 1.40 1.42 1.38 1.42 1.43 1.44 1.36 1.26 1.12 1.12 1.09 1.06 1.06 1.09 1.14 1.18 1.16 1.13 1.15 1.16 1.15 1.13 1.06 1.00 0.99 0.97 0.99 0.98 0.95 0.91 0.87 0.85 0.84 0.84
1.38 1.40 1.46 1.48 1.51 1.53 1.59 1.62 1.62 1.58 1.55 1.60 1.63 1.65 1.63 1.64 1.66 1.63 1.55 1.53 1.44 1.39 1.28 1.23 1.19 1.17 1.09 1.08 1.19 1.16 1.13 1.14 1.14 1.15 1.06 0.94 1.04 1.01 1.11 1.20 1.22 1.29 1.38 1.36 1.30 1.35 1.29 1.27 1.31 1.33 1.38 1.43 1.47 1.47 1.48 1.48 1.47 1.49 1.41 1.21 1.19 1.16 1.14 1.12 1.09 1.09 1.11 1.14 1.16 1.13 1.12 1.14 1.14 1.12 1.10 1.07 1.04 1.04 1.03 1.02 1.01 0.99 0.96 0.95 0.92
1.37 1.36 1.38 1.43 1.45 1.51 1.53 1.57 1.60 1.56 1.56 1.58 1.61 1.62 1.63 1.64 1.67 1.61 1.58 1.47 1.48 1.37 1.29 1.28 1.21 1.25 1.25 1.20 1.15 1.19 1.18 1.15 1.16 1.12 1.13 1.13 1.08 1.05 1.12 1.18 1.10 1.22 1.31 1.34 1.36 1.33 1.32 1.35 1.31 1.32 1.37 1.43 1.46 1.48 1.50 1.50 1.54 1.49 1.46 1.26 1.25 1.22 1.19 1.18 1.15 1.13 1.13 1.14 1.10 1.07 1.07 1.08 1.07 1.07 1.07 1.06 1.06 1.06 1.06 1.05 1.04 1.02 1.02 1.00 0.98
1.33 1.35 1.33 1.38 1.41 1.47 1.50 1.55 1.61 1.59 1.55 1.54 1.57 1.58 1.62 1.65 1.63 1.61 1.58 1.47 1.44 1.36 1.32 1.31 1.24 1.22 1.30 1.28 1.25 1.23 1.16 1.13 1.14 1.18 1.14 1.06 1.03 1.05 1.07 1.11 1.09 1.14 1.32 1.34 1.31 1.31 1.33 1.36 1.31 1.30 1.38 1.41 1.44 1.47 1.48 1.49 1.49 1.49 1.40 1.33 1.29 1.27 1.26 1.24 1.22 1.21 1.20 1.14 1.09 1.09 1.09 1.10 1.11 1.11 1.10 1.09 1.08 1.07 1.06 1.06 1.06 1.05 1.04 1.02 1.00
1.27 1.29 1.32 1.33 1.37 1.42 1.48 1.54 1.55 1.53 1.49 1.53 1.58 1.60 1.64 1.68 1.61 1.53 1.51 1.49 1.45 1.36 1.32 1.27 1.20 1.21 1.24 1.31 1.27 1.30 1.30 1.22 1.24 1.23 1.18 1.19 1.16 1.11 1.11 1.19 1.08 1.07 1.30 1.30 1.30 1.28 1.30 1.30 1.32 1.33 1.38 1.39 1.43 1.45 1.45 1.46 1.50 1.49 1.42 1.39 1.34 1.31 1.29 1.26 1.25 1.23 1.20 1.17 1.15 1.17 1.17 1.14 1.12 1.11 1.10 1.10 1.09 1.08 1.08 1.07 1.07 1.07 1.07 1.07 1.08
1.19 1.19 1.25 1.30 1.35 1.36 1.39 1.44 1.47 1.47 1.49 1.53 1.57 1.61 1.65 1.66 1.59 1.52 1.48 1.46 1.41 1.35 1.29 1.24 1.21 1.20 1.16 1.32 1.33 1.30 1.31 1.30 1.25 1.25 1.26 1.21 1.17 1.06 1.16 1.16 1.00 1.01 1.15 1.19 1.17 1.24 1.25 1.27 1.31 1.36 1.37 1.40 1.43 1.44 1.45 1.44 1.48 1.52 1.42 1.44 1.39 1.36 1.30 1.28 1.26 1.24 1.21 1.17 1.18 1.22 1.24 1.24 1.19 1.15 1.12 1.10 1.09 1.08 1.07 1.06 1.06 1.08 1.09 1.10 1.11
1.15 1.17 1.25 1.34 1.35 1.37 1.41 1.42 1.43 1.42 1.45 1.48 1.51 1.57 1.63 1.63 1.59 1.50 1.46 1.46 1.44 1.37 1.30 1.25 1.24 1.23 1.26 1.28 1.28 1.28 1.31 1.34 1.29 1.22 1.24 1.17 1.08 1.07 1.10 1.10 1.06 1.06 1.18 1.12 1.13 1.09 1.20 1.25 1.28 1.29 1.33 1.37 1.37 1.39 1.42 1.43 1.45 1.50 1.41 1.37 1.41 1.37 1.33 1.29 1.27 1.26 1.22 1.20 1.19 1.21 1.24 1.25 1.24 1.23 1.23 1.22 1.20 1.17 1.14 1.12 1.12 1.12 1.12 1.13 1.13
1.16 1.21 1.28 1.33 1.35 1.39 1.40 1.41 1.41 1.36 1.38 1.43 1.48 1.53 1.61 1.63 1.58 1.53 1.50 1.50 1.44 1.38 1.28 1.23 1.19 1.20 1.22 1.24 1.28 1.30 1.29 1.35 1.33 1.29 1.28 1.29 1.27 1.21 1.12 1.04 1.04 1.03 1.04 1.13 1.13 1.10 1.15 1.27 1.32 1.32 1.35 1.36 1.36 1.39 1.42 1.43 1.43 1.44 1.41 1.36 1.36 1.38 1.34 1.30 1.28 1.26 1.23 1.21 1.20 1.22 1.25 1.26 1.26 1.27 1.28 1.29 1.28 1.26 1.22 1.20 1.18 1.16 1.16 1.15 1.14
1.23 1.23 1.28 1.29 1.34 1.36 1.40 1.40 1.41 1.35 1.34 1.41 1.45 1.49 1.55 1.57 1.56 1.51 1.48 1.51 1.42 1.36 1.27 1.21 1.20 1.22 1.21 1.24 1.22 1.22 1.29 1.29 1.30 1.29 1.28 1.29 1.32 1.31 1.23 1.12 1.04 1.02 1.10 1.04 1.11 1.15 1.22 1.18 1.30 1.34 1.37 1.39 1.44 1.46 1.50 1.43 1.41 1.41 1.35 1.35 1.39 1.44 1.39 1.32 1.29 1.27 1.23 1.21 1.20 1.23 1.26 1.27 1.28 1.29 1.29 1.29 1.29 1.27 1.25 1.23 1.22 1.22 1.22 1.21 1.18
1.22 1.25 1.25 1.26 1.29 1.34 1.36 1.40 1.42 1.36 1.33 1.36 1.42 1.46 1.51 1.54 1.51 1.47 1.45 1.46 1.43 1.36 1.26 1.21 1.21 1.24 1.21 1.22 1.22 1.21 1.29 1.31 1.30 1.30 1.31 1.30 1.31 1.32 1.30 1.17 1.15 1.02 1.04 1.04 1.08 1.10 1.23 1.25 1.21 1.47 1.47 1.44 1.46 1.50 1.50 1.47 1.46 1.42 1.44 1.45 1.44 1.47 1.48 1.33 1.28 1.26 1.24 1.23 1.24 1.25 1.26 1.28 1.30 1.29 1.28 1.27 1.27 1.26 1.23 1.21 1.20 1.22 1.22 1.22 1.21
1.22 1.25 1.25 1.24 1.25 1.29 1.32 1.37 1.42 1.40 1.33 1.36 1.38 1.43 1.49 1.49 1.50 1.48 1.49 1.47 1.41 1.39 1.29 1.23 1.21 1.22 1.26 1.27 1.25 1.24 1.26 1.31 1.28 1.26 1.32 1.31 1.28 1.29 1.30 1.27 1.21 1.07 1.05 0.97 1.05 1.15 1.16 1.24 1.18 1.29 1.42 1.44 1.47 1.46 1.44 1.46 1.43 1.35 1.38 1.41 1.40 1.43 1.37 1.27 1.25 1.26 1.26 1.26 1.25 1.26 1.28 1.29 1.28 1.26 1.26 1.26 1.26 1.25 1.21 1.19 1.20 1.22 1.23 1.23 1.23
1.22 1.21 1.22 1.22 1.22 1.23 1.27 1.32 1.38 1.39 1.37 1.35 1.38 1.39 1.46 1.44 1.45 1.44 1.47 1.48 1.42 1.36 1.32 1.24 1.24 1.22 1.22 1.24 1.28 1.26 1.32 1.32 1.32 1.28 1.30 1.32 1.29 1.31 1.31 1.31 1.28 1.18 1.07 1.04 0.92 1.12 1.19 1.15 1.23 1.31 1.32 1.38 1.37 1.39 1.42 1.41 1.38 1.29 1.35 1.40 1.39 1.37 1.28 1.27 1.25 1.25 1.25 1.25 1.28 1.28 1.27 1.26 1.24 1.24 1.25 1.26 1.25 1.23 1.20 1.20 1.21 1.22 1.24 1.26 1.26
1.23 1.23 1.20 1.19 1.21 1.19 1.22 1.26 1.33 1.38 1.37 1.36 1.37 1.36 1.41 1.42 1.41 1.37 1.40 1.44 1.41 1.36 1.32 1.28 1.25 1.25 1.22 1.21 1.24 1.26 1.31 1.31 1.29 1.28 1.31 1.31 1.29 1.29 1.29 1.30 1.30 1.27 1.18 1.04 0.94 0.97 1.22 1.13 1.22 1.29 1.27 1.30 1.32 1.25 1.27 1.33 1.40 1.26 1.30 1.37 1.41 1.31 1.24 1.29 1.30 1.28 1.25 1.26 1.28 1.30 1.27 1.25 1.23 1.24 1.24 1.25 1.24 1.23 1.21 1.21 1.22 1.23 1.25 1.25 1.25
1.25 1.23 1.19 1.17 1.19 1.19 1.18 1.22 1.27 1.33 1.35 1.36 1.37 1.36 1.37 1.38 1.38 1.36 1.36 1.39 1.37 1.36 1.33 1.27 1.26 1.24 1.23 1.19 1.22 1.26 1.31 1.28 1.28 1.28 1.28 1.30 1.27 1.26 1.30 1.31 1.29 1.30 1.22 1.11 0.99 0.98 1.11 1.24 1.24 1.24 1.33 1.29 1.27 1.29 1.24 1.26 1.34 1.35 1.25 1.31 1.37 1.34 1.33 1.35 1.41 1.40 1.35 1.29 1.29 1.29 1.27 1.25 1.25 1.26 1.26 1.26 1.25 1.23 1.21 1.18 1.19 1.21 1.23 1.22 1.21
1.27 1.23 1.21 1.20 1.19 1.20 1.18 1.19 1.22 1.30 1.34 1.35 1.37 1.36 1.34 1.34 1.35 1.35 1.31 1.32 1.32 1.33 1.32 1.24 1.25 1.25 1.25 1.18 1.19 1.25 1.29 1.27 1.29 1.27 1.28 1.29 1.28 1.23 1.26 1.27 1.28 1.31 1.32 1.21 1.14 1.06 1.01 1.20 1.23 1.29 1.27 1.34 1.19 1.33 1.28 1.27 1.28 1.32 1.32 1.37 1.41 1.39 1.34 1.35 1.34 1.43 1.42 1.34 1.28 1.28 1.28 1.27 1.27 1.29 1.29 1.28 1.27 1.24 1.19 1.17 1.18 1.20 1.18 1.15 1.12
1.30 1.26 1.23 1.21 1.19 1.18 1.17 1.19 1.21 1.24 1.30 1.32 1.39 1.39 1.34 1.33 1.32 1.32 1.29 1.27 1.27 1.28 1.26 1.23 1.24 1.26 1.22 1.18 1.17 1.22 1.27 1.24 1.27 1.28 1.29 1.28 1.30 1.27 1.26 1.31 1.28 1.30 1.38 1.32 1.21 1.15 1.12 1.12 1.22 1.19 1.25 1.36 1.31 1.32 1.38 1.34 1.31 1.31 1.28 1.30 1.34 1.40 1.41 1.36 1.32 1.31 1.37 1.32 1.29 1.26 1.26 1.27 1.29 1.30 1.31 1.29 1.28 1.24 1.21 1.19 1.19 1.17 1.12 1.07 1.03
1.28 1.28 1.27 1.24 1.23 1.20 1.18 1.18 1.21 1.22 1.27 1.30 1.34 1.39 1.36 1.32 1.33 1.33 1.32 1.29 1.27 1.27 1.25 1.25 1.26 1.26 1.20 1.16 1.15 1.19 1.24 1.23 1.25 1.26 1.28 1.29 1.29 1.28 1.27 1.31 1.31 1.29 1.35 1.42 1.33 1.20 1.20 1.15 1.24 1.18 1.22 1.27 1.35 1.41 1.41 1.42 1.36 1.34 1.29 1.31 1.36 1.35 1.35 1.39 1.36 1.30 1.35 1.32 1.29 1.26 1.26 1.28 1.30 1.32 1.31 1.30 1.28 1.25 1.23 1.22 1.20 1.16 1.11 1.05 1.02
1.29 1.30 1.27 1.28 1.26 1.24 1.20 1.19 1.21 1.23 1.25 1.28 1.29 1.35 1.38 1.35 1.34 1.36 1.36 1.32 1.28 1.27 1.27 1.27 1.28 1.28 1.25 1.18 1.16 1.18 1.23 1.22 1.24 1.24 1.28 1.28 1.30 1.33 1.30 1.32 1.34 1.34 1.35 1.39 1.41 1.35 1.23 1.19 1.21 1.28 1.27 1.26 1.34 1.38 1.40 1.31 1.30 1.28 1.30 1.29 1.32 1.35 1.35 1.35 1.33 1.34 1.35 1.31 1.27 1.25 1.26 1.28 1.30 1.30 1.29 1.28 1.27 1.25 1.24 1.23 1.21 1.17 1.12 1.06 1.02
1.28 1.30 1.27 1.26 1.25 1.24 1.25 1.25 1.24 1.26 1.28 1.29 1.30 1.32 1.34 1.33 1.35 1.37 1.40 1.35 1.30 1.28 1.28 1.29 1.29 1.30 1.29 1.26 1.23 1.21 1.21 1.20 1.21 1.25 1.29 1.29 1.32 1.32 1.32 1.35 1.39 1.40 1.36 1.38 1.44 1.41 1.35 1.27 1.25 1.24 1.29 1.23 1.29 1.36 1.42 1.40 1.29 1.24 1.24 1.31 1.35 1.35 1.31 1.29 1.33 1.31 1.29 1.27 1.28 1.35 1.31 1.29 1.28 1.26 1.26 1.26 1.25 1.25 1.23 1.21 1.19 1.14 1.06 1.00 0.97
1.26 1.24 1.27 1.26 1.27 1.27 1.28 1.27 1.26 1.27 1.28 1.29 1.32 1.32 1.31 1.33 1.34 1.36 1.38 1.38 1.35 1.32 1.31 1.30 1.31 1.32 1.32 1.33 1.31 1.29 1.25 1.24 1.23 1.25 1.30 1.31 1.32 1.31 1.33 1.37 1.43 1.44 1.42 1.41 1.45 1.44 1.39 1.32 1.31 1.30 1.28 1.33 1.32 1.28 1.38 1.44 1.37 1.28 1.16 1.13 1.14 1.30 1.39 1.33 1.25 1.27 1.27 1.27 1.32 1.29 1.25 1.28 1.30 1.28 1.27 1.25 1.25 1.24 1.22 1.19 1.12 1.04 0.98 0.94 0.92
1.36 1.30 1.25 1.23 1.25 1.26 1.27 1.26 1.26 1.29 1.29 1.28 1.30 1.32 1.31 1.31 1.34 1.36 1.37 1.39 1.37 1.35 1.33 1.32 1.32 1.33 1.35 1.36 1.37 1.37 1.34 1.33 1.30 1.30 1.36 1.37 1.37 1.35 1.40 1.43 1.46 1.46 1.43 1.43 1.44 1.45 1.42 1.35 1.30 1.29 1.32 1.29 1.33 1.37 1.40 1.42 1.31 1.24 1.21 1.12 1.06 1.14 1.23 1.34 1.30 1.19 1.23 1.19 1.16 1.25 1.35 1.31 1.28 1.26 1.25 1.25 1.23 1.21 1.16 1.09 1.01 0.95 0.93 0.90 0.90
1.49 1.44 1.36 1.30 1.26 1.23 1.23 1.23 1.22 1.25 1.26 1.26 1.28 1.29 1.28 1.28 1.32 1.34 1.36 1.37 1.38 1.36 1.35 1.33 1.33 1.34 1.36 1.37 1.40 1.42 1.43 1.41 1.41 1.40 1.43 1.48 1.46 1.41 1.48 1.51 1.49 1.48 1.46 1.45 1.45 1.46 1.44 1.37 1.30 1.32 1.28 1.26 1.28 1.29 1.29 1.28 1.23 1.18 1.31 1.29 1.16 1.15 1.16 1.16 1.25 1.37 1.30 1.21 1.24 1.25 1.28 1.33 1.30 1.29 1.25 1.23 1.25 1.20 1.11 1.06 1.01 1.00 0.98 0.94 0.89
1.55 1.52 1.46 1.40 1.34 1.28 1.22 1.20 1.19 1.20 1.21 1.27 1.26 1.26 1.27 1.27 1.28 1.32 1.36 1.37 1.37 1.38 1.37 1.34 1.33 1.34 1.34 1.35 1.39 1.40 1.41 1.42 1.44 1.45 1.47 1.51 1.53 1.54 1.58 1.58 1.55 1.52 1.51 1.48 1.45 1.45 1.41 1.33 1.29 1.28 1.23 1.23 1.27 1.30 1.28 1.28 1.32 1.35 1.30 1.25 1.12 1.16 1.17 1.15 1.17 1.23 1.36 1.27 1.19 1.17 1.23 1.28 1.22 1.17 1.11 1.04 1.07 1.02 0.95 0.91 0.93 0.97 0.95 0.87 0.80
1.58 1.58 1.53 1.45 1.36 1.32 1.28 1.23 1.19 1.17 1.18 1.22 1.24 1.21 1.21 1.24 1.29 1.31 1.31 1.35 1.37 1.37 1.38 1.35 1.32 1.33 1.32 1.34 1.38 1.39 1.39 1.41 1.44 1.47 1.49 1.50 1.51 1.55 1.62 1.67 1.66 1.59 1.52 1.50 1.49 1.47 1.41 1.33 1.34 1.32 1.25 1.24 1.27 1.28 1.26 1.27 1.26 1.27 1.29 1.24 1.16 1.11 1.07 1.00 0.95 1.09 1.35 1.29 1.18 1.08 1.08 1.17 1.09 0.95 0.95 0.91 0.90 0.88 0.89 0.89 0.89 0.84 0.73 0.65 0.60
1.60 1.61 1.58 1.52 1.44 1.37 1.33 1.27 1.22 1.19 1.18 1.18 1.19 1.16 1.15 1.18 1.22 1.28 1.34 1.36 1.36 1.34 1.35 1.36 1.36 1.35 1.33 1.32 1.35 1.42 1.41 1.41 1.44 1.46 1.48 1.50 1.51 1.55 1.60 1.64 1.66 1.65 1.64 1.60 1.53 1.48 1.44 1.37 1.36 1.35 1.31 1.29 1.29 1.30 1.28 1.25 1.21 1.23 1.22 1.14 1.11 1.08 1.02 0.99 0.98 0.97 1.21 1.27 1.11 1.00 0.95 0.98 0.94 0.86 0.79 0.82 0.85 0.85 0.83 0.80 0.73 0.71 0.68 0.57 0.48
1.63 1.59 1.59 1.59 1.52 1.45 1.37 1.29 1.22 1.21 1.19 1.18 1.15 1.14 1.12 1.13 1.15 1.20 1.29 1.37 1.37 1.35 1.35 1.35 1.36 1.36 1.36 1.34 1.35 1.39 1.43 1.40 1.42 1.46 1.47 1.47 1.50 1.56 1.62 1.65 1.65 1.63 1.61 1.62 1.64 1.62 1.58 1.47 1.39 1.39 1.39 1.35 1.28 1.29 1.31 1.26 1.27 1.14 1.12 1.06 1.07 1.06 1.05 0.99 1.00 1.04 1.14 1.20 1.04 0.91 0.78 0.80 0.80 0.76 0.75 0.80 0.79 0.76 0.72 0.74 0.74 0.71 0.62 0.47 0.45
1.61 1.62 1.63 1.61 1.60 1.54 1.45 1.38 1.31 1.25 1.21 1.18 1.12 1.11 1.11 1.10 1.12 1.16 1.21 1.33 1.37 1.36 1.36 1.38 1.36 1.35 1.36 1.35 1.35 1.36 1.41 1.40 1.39 1.42 1.45 1.46 1.47 1.53 1.61 1.64 1.64 1.63 1.63 1.63 1.63 1.60 1.59 1.56 1.52 1.45 1.51 1.45 1.31 1.32 1.37 1.36 1.23 1.11 1.05 1.00 1.03 1.01 1.00 1.00 1.06 1.04 1.05 1.05 0.89 0.80 0.67 0.71 0.78 0.73 0.64 0.69 0.71 0.69 0.69 0.71 0.64 0.59 0.50 0.44 0.45
1.60 1.60 1.63 1.61 1.62 1.61 1.56 1.48 1.40 1.33 1.27 1.21 1.12 1.08 1.09 1.09 1.10 1.14 1.21 1.29 1.35 1.37 1.38 1.38 1.40 1.40 1.38 1.38 1.38 1.38 1.41 1.41 1.38 1.40 1.44 1.45 1.45 1.50 1.59 1.64 1.66 1.67 1.65 1.63 1.62 1.60 1.55 1.51 1.50 1.52 1.55 1.54 1.46 1.43 1.41 1.36 1.24 1.16 1.12 1.04 1.03 1.02 1.03 1.04 1.00 1.01 0.93 0.96 0.90 0.74 0.58 0.66 0.73 0.65 0.61 0.62 0.66 0.65 0.64 0.62 0.58 0.54 0.46 0.41 0.41
1.65 1.67 1.68 1.67 1.64 1.60 1.61 1.61 1.47 1.34 1.35 1.29 1.17 1.10 1.08 1.09 1.12 1.16 1.20 1.23 1.27 1.33 1.35 1.34 1.38 1.42 1.46 1.45 1.41 1.41 1.44 1.44 1.42 1.42 1.47 1.51 1.49 1.51 1.57 1.65 1.68 1.69 1.68 1.72 1.72 1.66 1.60 1.55 1.48 1.50 1.53 1.51 1.51 1.45 1.40 1.31 1.24 1.15 1.09 1.06 1.05 0.99 0.94 0.89 0.82 0.79 0.72 0.79 0.85 0.71 0.61 0.60 0.64 0.56 0.57 0.62 0.63 0.59 0.57 0.52 0.54 0.51 0.47 0.43 0.42
1.60 1.61 1.61 1.64 1.66 1.65 1.63 1.62 1.51 1.44 1.40 1.36 1.23 1.12 1.07 1.08 1.11 1.13 1.15 1.18 1.22 1.27 1.31 1.36 1.39 1.42 1.45 1.48 1.49 1.45 1.46 1.47 1.46 1.44 1.47 1.50 1.51 1.53 1.59 1.65 1.69 1.69 1.68 1.72 1.70 1.65 1.60 1.57 1.54 1.56 1.60 1.54 1.49 1.37 1.24 1.16 1.12 1.11 1.05 0.96 0.92 0.93 0.84 0.73 0.71 0.68 0.67 0.73 0.74 0.74 0.65 0.50 0.56 0.57 0.55 0.57 0.53 0.48 0.47 0.50 0.55 0.55 0.49 0.45 0.46
1.57 1.60 1.65 1.65 1.68 1.69 1.66 1.61 1.59 1.54 1.49 1.45 1.34 1.23 1.12 1.06 1.05 1.06 1.10 1.12 1.14 1.20 1.28 1.37 1.39 1.44 1.46 1.47 1.49 1.50 1.47 1.48 1.50 1.47 1.49 1.51 1.51 1.56 1.60 1.63 1.66 1.65 1.65 1.65 1.62 1.59 1.58 1.54 1.52 1.54 1.57 1.55 1.45 1.29 1.16 1.06 1.02 1.00 0.96 0.86 0.93 0.89 0.78 0.68 0.60 0.60 0.66 0.64 0.66 0.71 0.54 0.50 0.54 0.56 0.51 0.50 0.45 0.45 0.47 0.47 0.47 0.48 0.52 0.54 0.53
1.62 1.67 1.71 1.68 1.68 1.69 1.68 1.70 1.73 1.71 1.70 1.68 1.54 1.37 1.27 1.16 1.11 1.12 1.12 1.11 1.10 1.14 1.20 1.26 1.34 1.39 1.43 1.45 1.44 1.47 1.51 1.54 1.50 1.49 1.51 1.53 1.54 1.58 1.62 1.65 1.62 1.61 1.62 1.61 1.53 1.48 1.47 1.45 1.48 1.52 1.51 1.50 1.40 1.23 1.09 1.02 0.99 0.98 1.00 0.97 0.95 0.80 0.66 0.62 0.61 0.61 0.52 0.59 0.72 0.71 0.54 0.52 0.49 0.49 0.47 0.41 0.36 0.39 0.43 0.46 0.49 0.53 0.53 0.51 0.53
Wind_Speed
6 6 5 5 5 5 4 4 4 4 4 5 5 5 5 5 6 6 6 6 7 7 6 6 6 6 6 6 6 5 5 4 4 4 4 3 3 3 3 3 3 2 2 1 1 1 1 1 1 0 1 0 0 0 1 1 1 2 3 4 4 5 5 5 6 6 7 7 7 7 7 7 7 7 6 6 6 6 6 6 6 5 6 6 6
5 5 5 4 4 4 4 3 3 3 3 4 4 4 4 5 5 5 5 6 6 6 6 6 5 5 5 5 5 5 5 4 4 4 3 3 3 3 3 3 3 2 1 1 1 1 1 0 0 0 0 0 1 1 1 1 1 2 3 3 4 4 5 6 6 7 7 7 7 8 8 8 8 8 8 8 7 7 7 7 7 6 6 7 7
5 5 5 4 4 3 3 3 3 3 3 3 3 3 4 4 4 4 5 5 5 6 6 5 5 5 5 5 5 5 5 4 3 3 3 3 3 3 2 2 2 2 2 1 0 1 1 1 1 1 1 1 1 1 1 1 2 2 2 3 3 4 5 5 6 7 7 7 8 8 8 8 9 9 9 9 9 9 9 8 8 8 7 7 8
5 5 4 4 3 3 2 2 2 2 2 2 3 3 3 3 3 4 4 4 4 5 5 5 4 4 5 5 5 5 5 4 3 3 3 3 3 3 2 2 2 2 2 1 1 0 1 1 1 1 1 1 1 2 2 2 2 2 2 3 3 3 4 5 6 6 7 7 8 8 8 9 9 9 10 10 10 10 10 10 10 9 9 9 8
5 5 4 3 3 2 2 2 1 2 2 2 2 3 3 3 3 3 4 4 4 4 4 4 3 3 4 4 4 5 5 4 3 3 3 3 3 3 3 2 2 2 2 1 1 1 1 1 2 2 2 2 2 2 2 2 2 3 3 3 3 4 4 5 5 6 6 7 7 8 8 9 9 10 10 11 11 11 11 11 11 11 10 10 10
5 5 4 3 3 2 2 1 1 1 1 2 2 3 3 3 3 3 3 3 4 4 3 3 2 2 3 3 4 4 4 4 3 3 3 3 3 3 3 2 2 2 2 2 1 1 1 1 2 3 3 3 3 3 3 3 3 3 4 4 4 4 4 5 5 5 6 7 7 7 8 8 9 10 10 11 11 12 12 12 12 12 12 11 11
6 5 4 4 3 2 1 1 1 0 1 2 2 3 3 3 3 3 3 3 4 4 3 2 2 2 2 3 3 3 4 3 3 3 3 2 2 2 3 3 2 2 2 2 2 2 2 2 2 3 3 4 4 4 4 4 4 4 4 4 5 5 5 5 6 6 6 7 7 8 8 9 9 9 10 10 11 12 12 13 13 13 12 12 12
6 5 4 4 3 2 2 1 0 0 1 2 2 3 3 3 3 3 3 3 4 4 2 2 3 2 2 2 2 2 3 3 2 3 3 2 2 2 3 3 3 3 3 3 3 3 3 3 3 3 4 4 4 4 5 5 5 5 5 5 5 6 6 6 6 7 7 7 7 7 8 9 9 9 10 10 10 11 12 12 13 13 13 13 13
6 5 5 4 3 2 2 1 1 1 1 2 2 3 3 3 3 3 3 3 4 4 3 3 3 2 2 2 2 2 2 2 2 2 2 2 2 2 2 3 3 3 3 3 3 3 4 4 4 4 4 4 5 5 5 6 6 6 6 6 6 7 7 7 7 7 7 7 7 8 9 9 9 10 10 10 10 11 12 12 13 13 13 14 14
7 6 5 4 3 3 2 1 1 1 2 2 2 3 3 3 2 2 3 3 3 3 3 3 2 2 2 2 2 2 2 2 2 2 2 2 1 2 2 3 3 3 3 4 4 4 4 4 4 4 4 5 5 5 5 6 6 6 7 7 7 7 7 8 8 8 8 7 7 8 9 10 10 10 10 11 11 11 11 12 13 13 14 14 15
7 6 5 4 4 3 2 2 1 1 2 2 2 2 2 2 2 2 3 3 3 3 3 2 2 2 2 2 2 2 2 2 2 2 2 1 1 1 2 3 3 3 4 4 4 4 4 4 4 4 4 4 5 5 5 6 6 6 7 7 8 8 8 8 9 9 8 8 8 9 9 10 10 10 10 11 11 11 12 12 13 13 13 14 15
8 7 6 5 4 3 3 2 2 1 2 2 2 2 2 2 2 2 2 3 3 3 2 2 2 2 2 2 2 2 2 3 2 2 1 1 1 2 2 3 3 3 4 4 4 4 4 4 4 4 4 5 5 5 5 5 6 6 7 7 8 8 8 9 9 9 8 8 8 9 10 10 11 11 11 11 11 12 12 12 13 13 14 14 15
8 7 6 5 5 4 3 2 2 1 2 2 2 1 1 2 2 2 2 3 3 3 2 2 2 2 2 2 2 2 2 2 2 1 1 1 1 2 2 2 3 3 4 4 4 4 4 4 4 4 4 5 5 5 5 5 5 6 7 8 8 9 9 9 9 9 9 8 8 9 10 10 10 11 11 11 11 11 12 12 13 13 14 15 15
9 8 7 6 5 4 3 2 2 2 2 1 1 1 1 1 2 2 2 2 3 3 3 3 3 2 2 2 1 1 2 2 2 1 1 1 1 2 2 2 3 3 4 4 4 4 4 4 4 4 4 5 5 5 5 5 5 6 7 7 8 8 8 9 9 9 9 8 8 9 9 10 10 10 11 11 11 11 12 12 12 13 14 14 15
9 8 7 7 6 5 4 3 2 2 2 1 1 1 1 1 1 2 2 2 3 3 3 3 3 2 2 2 2 1 1 1 1 1 1 1 1 2 2 2 2 3 3 4 4 4 4 4 4 4 4 4 4 4 4 4 4 5 6 6 7 7 8 8 8 8 9 9 9 9 10 10 11 11 11 11 12 12 12 12 12 12 13 13 13
10 9 8 7 6 5 4 3 3 2 2 2 2 1 1 1 1 1 2 2 3 3 3 3 2 2 2 2 2 1 1 1 0 1 1 1 2 2 2 2 2 2 3 4 4 4 4 4 4 4 4 4 4 4 4 4 4 5 5 6 6 6 7 7 7 8 8 9 10 10 11 11 12 12 12 12 12 12 12 12 12 12 12 13 13
10 10 9 8 7 6 5 4 3 3 2 2 2 1 1 1 1 1 2 3 3 3 3 3 2 2 2 2 2 2 2 1 0 1 2 1 1 1 1 1 1 2 2 3 3 3 4 4 4 4 4 4 5 4 4 5 5 5 5 6 6 6 6 7 7 7 8 9 9 10 11 11 12 13 13 13 13 13 13 13 13 13 13 13 13
11 10 9 8 7 7 6 5 4 3 3 3 2 2 1 0 0 1 2 3 3 3 3 3 2 2 2 2 2 3 2 2 1 1 2 2 1 1 1 1 1 1 2 2 2 3 3 3 4 4 4 5 5 4 4 5 5 5 6 6 6 6 7 7 7 7 7 8 9 10 10 11 12 12 13 13 14 14 14 14 14 14 14 14 13
12 11 10 9 8 7 7 6 5 5 4 3 3 2 1 0 0 1 2 2 2 3 3 2 2 2 2 2 2 2 3 2 2 2 1 1 1 2 2 1 2 2 2 2 2 2 3 3 3 4 4 5 5 4 4 4 5 5 6 6 7 7 7 7 7 8 8 8 9 9 10 11 11 12 12 13 13 14 15 15 15 15 15 15 15
12 12 11 10 9 8 8 7 6 6 5 4 4 3 2 1 1 1 1 1 2 2 2 2 2 2 2 1 1 2 2 2 2 2 2 1 1 1 2 2 2 2 3 3 3 3 3 3 4 4 4 5 5 4 4 4 5 5 6 6 7 7 7 8 8 8 9 9 9 10 10 11 12 12 13 13 13 14 14 15 16 16 16 16 16
13 12 12 11 11 10 9 8 7 7 6 5 4 4 3 2 2 1 0 1 1 2 2 2 2 2 2 2 2 2 2 2 2 2 3 2 2 1 2 2 3 3 3 4 4 4 4 4 4 5 5 5 5 5 5 5 5 5 6 6 7 7 8 8 9 9 10 10 10 11 11 12 12 13 13 14 14 15 15 15 16 16 17 17 18
13 13 13 12 11 11 10 9 9 8 7 6 6 5 4 3 3 2 1 0 1 1 2 2 2 2 3 2 2 2 2 2 2 2 3 3 3 3 2 2 3 4 4 5 5 5 5 5 5 6 5 5 6 5 5 6 6 6 7 7 8 9 9 9 10 10 11 11 12 12 13 13 14 14 14 14 15 15 16 16 17 17 17 18 18
13 14 14 13 12 11 11 10 10 9 8 8 7 6 5 4 4 3 2 1 1 1 1 2 2 2 3 3 3 3 3 3 3 3 3 3 4 4 4 3 4 4 4 5 6 6 6 6 7 7 7 6 6 7 7 7 8 8 8 9 9 10 11 11 11 12 12 13 13 14 14 15 15 15 16 16 16 16 17 17 18 18 18 18 19
14 13 13 13 13 12 12 11 10 10 10 9 8 7 6 5 5 4 3 2 2 1 1 1 1 2 2 3 3 3 3 3 4 4 4 4 4 5 5 5 5 5 5 6 6 7 7 7 8 8 8 8 8 8 8 9 9 10 10 11 11 12 12 13 13 13 14 14 15 16 16 17 17 18 18 18 18 18 18 18 18 19 19 20 20
14 14 14 14 13 13 12 12 11 11 11 10 9 8 8 7 6 5 4 4 3 2 1 0 1 1 2 3 3 4 4 4 4 4 4 4 5 5 5 5 6 6 6 6 7 7 8 8 9 9 9 10 10 10 10 10 11 11 12 12 13 13 14 14 14 15 15 16 16 17 18 18 19 19 20 20 20 20 20 20 20 20 20 20 21
15 15 14 14 14 14 13 13 13 12 12 12 11 10 9 8 8 7 6 5 4 3 2 1 1 1 2 3 3 4 4 4 5 5 5 5 5 5 6 6 7 7 6 6 7 7 8 8 9 9 10 10 11 11 12 12 12 12 13 14 14 15 15 16 16 16 17 17 17 18 19 19 20 21 21 22 22 22 22 22 21 21 21 21 21
16 16 16 15 15 15 14 14 14 13 14 13 12 11 11 10 9 8 7 6 5 5 4 3 2 2 2 3 3 4 5 5 5 5 5 5 5 5 6 6 7 7 7 7 7 8 8 8 8 9 9 10 10 11 12 13 13 13 14 15 15 16 16 17 17 17 18 18 19 19 20 20 21 22 22 23 23 23 23 23 23 23 23 22 22
17 17 17 16 16 16 15 15 15 14 15 15 14 13 12 12 11 10 9 8 7 6 6 5 4 3 3 3 4 4 5 5 5 6 6 6 6 6 6 6 7 7 7 7 7 8 8 8 8 8 9 9 10 11 12 13 13 14 14 15 16 16 17 17 18 18 19 20 20 21 21 22 22 23 24 24 24 24 24 24 24 24 23 23 23
18 18 17 17 18 17 16 16 16 16 16 16 15 15 14 13 12 11 11 9 8 8 7 6 5 5 4 4 4 5 5 6 6 6 6 7 7 6 7 7 7 8 8 8 8 8 8 8 9 9 9 10 11 12 13 13 13 14 14 15 16 16 16 17 18 19 20 21 21 22 22 23 23 24 25 25 25 25 25 25 25 25 24 24 24
19 19 18 18 18 19 18 18 17 17 17 17 16 16 15 15 14 13 12 11 10 9 9 8 7 6 6 5 5 5 6 6 6 6 7 7 7 7 7 7 7 8 8 9 9 9 9 10 10 10 10 11 12 13 14 14 14 14 15 15 16 16 17 18 19 20 21 22 22 23 23 24 25 25 26 26 26 26 26 26 25 25 25 25 25
21 20 19 19 19 19 19 19 19 18 18 18 18 17 17 17 16 15 13 12 12 11 10 9 8 8 7 7 6 6 6 7 7 7 7 8 8 7 7 8 8 8 9 9 10 10 10 11 11 12 12 13 13 13 14 15 15 15 16 16 17 17 18 19 20 20 21 22 23 24 24 25 26 26 26 26 26 26 26 26 26 26 26 26 26
22 21 21 20 20 20 20 20 20 20 19 19 19 19 18 18 17 16 15 14 13 12 11 11 10 9 9 9 8 8 7 7 8 8 8 8 8 8 8 8 9 9 9 10 10 11 11 12 13 13 13 14 14 14 15 15 16 17 17 17 18 18 19 20 20 21 22 22 24 25 26 26 27 27 27 26 26 26 26 26 26 26 26 27 27
23 22 22 21 21 21 20 21 21 21 21 20 20 20 20 19 19 18 17 16 15 14 13 12 11 11 11 10 10 9 9 9 9 9 9 9 9 9 9 9 9 9 10 10 11 12 12 12 13 14 14 14 14 15 15 16 16 17 18 18 19 19 20 20 21 21 22 23 25 26 27 27 27 27 27 27 26 26 26 26 26 26 26 27 27
24 24 23 23 22 22 21 21 21 22 22 22 21 21 21 21 20 20 19 18 17 16 15 14 13 13 12 12 11 11 11 11 11 10 10 10 10 10 10 10 10 10 10 11 12 13 13 13 14 14 14 14 15 15 15 16 16 17 18 19 19 20 20 21 22 22 23 25 26 27 28 28 28 28 28 27 27 27 27 27 27 27 27 27 28
25 25 24 24 23 23 23 22 22 22 23 23 22 22 22 22 21 21 21 20 19 18 17 15 15 14 14 13 13 13 12 12 12 12 11 11 11 11 11 11 11 11 11 12 13 13 14 14 14 14 14 15 15 15 16 16 17 18 18 19 20 20 21 22 23 24 24 26 27 28 29 29 29 29 29 28 28 28 28 28 28 28 28 28 28
26 25 25 25 24 24 24 23 23 23 24 24 24 24 23 23 23 22 22 21 21 20 18 17 16 16 15 15 15 14 14 14 13 13 13 12 12 12 12 12 12 12 12 13 14 14 15 15 15 15 15 16 16 16 17 17 18 18 19 20 20 21 22 22 23 24 25 26 28 29 30 30 30 30 30 30 29 29 29 29 29 29 29 29 29
26 26 26 25 25 25 25 24 24 24 24 25 25 25 25 24 24 24 23 23 22 21 20 19 18 17 17 16 16 15 15 15 14 14 14 14 14 13 13 13 13 13 13 14 14 15 15 16 16 16 17 17 17 18 18 19 19 20 20 21 21 22 23 23 24 25 25 27 29 29 30 30 30 30 30 30 30 30 30 29 29 29 29 29 29
25 26 26 26 26 26 26 25 25 25 25 26 26 26 26 26 25 25 25 24 24 23 22 21 20 19 18 18 17 17 16 16 16 15 16 15 15 14 14 14 14 14 14 15 15 15 16 16 17 17 18 18 18 19 19 20 20 20 21 21 22 23 23 24 25 25 26 28 28 29 29 29 30 30 30 30 30 30 30 30 30 30 30 30 30
23 25 26 26 26 27 27 26 26 26 26 27 27 28 27 27 26 26 26 26 25 24 23 23 22 21 20 19 18 18 18 17 17 16 16 16 16 15 15 15 15 15 15 15 16 16 16 17 18 18 18 19 19 20 20 20 20 21 21 22 22 22 23 24 25 26 27 28 28 29 29 30 30 30 30 31 31 31 31 30 30 30 30 30 30
21 22 23 25 26 26 27 27 27 27 27 27 28 28 29 28 28 27 27 27 26 25 25 24 23 23 22 21 20 20 19 19 18 17 17 17 16 16 15 15 15 15 16 16 16 17 17 18 18 19 19 19 20 20 20 20 20 21 21 22 22 23 23 24 25 26 27 27 28 28 29 29 30 30 30 31 31 31 30 29 30 30 29 28 28
20 21 21 22 24 25 26 27 28 28 27 28 29 29 29 29 29 28 28 28 28 27 26 25 25 24 23 23 22 22 21 20 19 19 18 18 17 17 16 16 16 16 17 17 17 17 18 18 19 19 19 20 20 20 20 20 20 21 21 22 22 23 23 24 25 25 26 27 28 28 28 29 29 30 30 30 30 29 29 29 29 28 27 27 28
21 21 21 22 23 24 25 26 27 27 27 28 29 30 30 30 29 29 29 29 29 28 27 27 26 26 25 24 24 23 22 21 21 20 20 19 19 18 17 17 17 17 17 18 18 18 18 19 19 20 20 20 20 20 20 21 21 21 21 21 22 23 23 24 25 25 25 26 27 28 28 29 29 30 30 30 29 29 29 28 28 27 27 28 30
22 22 22 22 23 24 25 26 26 27 27 28 29 30 31 31 30 30 30 30 30 30 29 28 27 27 26 25 25 24 24 23 22 22 21 21 20 20 19 18 18 18 18 18 18 19 19 19 20 20 20 20 20 20 20 21 21 21 21 22 22 23 23 24 25 25 25 26 27 28 28 29 29 30 30 29 29 29 28 27 27 28 29 30 30
24 23 23 23 23 24 25 26 27 27 27 28 29 30 31 32 31 31 30 30 31 30 30 29 29 28 27 27 26 25 25 25 24 23 23 22 22 22 21 20 19 19 19 19 19 19 20 20 20 21 20 20 20 20 21 21 22 21 21 22 22 23 23 24 25 26 25 26 27 28 28 29 29 29 29 29 28 27 27 27 27 28 29 30 30
25 25 25 25 25 25 25 26 27 27 28 28 29 30 31 32 32 32 31 31 31 31 31 31 30 29 28 28 27 26 26 26 25 24 23 23 23 23 22 22 21 20 20 20 20 20 20 20 21 21 20 20 20 21 21 22 22 21 21 22 22 23 23 24 25 26 26 27 27 28 28 29 28 28 28 27 27 26 26 27 27 29 30 30 29
27 27 27 27 26 26 26 26 27 27 28 28 29 30 31 32 32 33 32 32 32 32 32 32 31 30 30 29 28 27 27 27 26 25 24 24 24 24 23 23 22 22 21 21 21 21 21 21 21 21 21 20 21 21 22 22 22 22 22 22 22 23 23 24 25 26 27 27 27 27 28 27 27 27 27 27 26 27 27 27 28 29 29 29 28
29 29 29 29 28 28 28 27 27 27 28 28 28 30 31 32 32 33 33 33 32 32 33 32 32 32 31 30 30 29 28 28 28 26 25 24 24 24 24 23 23 22 22 21 21 21 22 21 21 21 21 21 21 21 22 22 22 21 22 22 22 23 24 24 25 26 26 26 25 25 26 26 26 27 27 27 26 27 27 28 28 28 28 28 28
31 31 31 30 30 30 29 29 29 29 28 28 28 29 31 32 32 33 33 33 33 33 33 33 33 32 32 32 31 30 30 29 29 28 26 25 25 24 24 24 23 23 22 22 21 21 21 21 21 21 21 20 20 21 21 22 21 21 21 22 21 22 23 24 24 25 25 25 24 24 25 26 26 27 27 26 26 27 28 28 28 27 28 28 28
32 32 32 32 31 31 31 31 31 31 30 30 30 30 31 32 32 33 34 34 34 34 34 34 34 33 33 33 33 32 31 30 30 29 28 26 26 25 25 24 24 23 22 21 21 20 20 20 20 20 20 20 20 21 22 22 21 21 21 21 21 22 23 23 24 24 24 24 24 24 25 26 26 26 26 26 26 27 27 27 27 27 28 28 28
32 32 32 32 32 32 32 32 32 32 32 31 31 31 32 32 33 34 34 34 34 35 35 35 35 34 33 34 34 34 33 32 31 30 29 28 27 26 26 25 24 23 22 21 20 20 20 20 20 20 20 20 21 22 22 22 21 21 21 21 22 22 22 23 23 23 23 24 23 23 24 26 26 26 26 26 26 26 26 26 27 28 28 28 28
32 32 32 33 33 33 32 32 32 33 33 32 32 33 33 33 34 34 34 34 35 36 36 36 36 35 35 35 36 36 35 33 32 32 31 29 28 27 26 26 25 24 22 21 20 20 20 20 20 21 21 21 22 22 22 21 21 21 21 22 22 21 21 22 22 22 23 23 22 23 25 26 26 26 26 26 25 25 26 26 27 27 27 28 27
Wind_Direction
135 131 127 125 121 116 109 99 92 85 81 78 74 71 65 64 61 58 58 54 49 51 51 52 53 51 50 51 50 51 58 65 64 65 65 63 65 76 91 89 85 98 113 125 136 137 139 117 120 125 112 109 4 221 227 246 247 243 249 247 245 243 241 241 241 244 247 250 254 256 257 258 260 263 266 268 271 273 275 277 280 281 281 281 284
139 138 133 131 126 121 113 100 91 84 78 74 70 65 58 57 56 52 51 49 47 44 44 46 45 48 49 48 47 47 52 59 63 62 57 58 61 65 85 92 81 82 99 124 158 172 190 193 196 211 230 266 290 278 252 254 253 249 254 256 256 252 247 246 244 246 249 252 255 258 258 257 258 261 263 265 267 271 273 276 278 278 278 278 281
147 144 139 135 129 126 116 102 89 79 72 65 61 55 49 49 46 41 39 39 38 36 38 40 39 45 48 45 42 40 46 56 61 61 54 52 59 63 75 95 90 77 71 71 118 214 234 246 256 266 276 289 290 277 267 263 259 257 260 263 264 262 257 252 250 249 250 253 256 259 261 258 258 261 263 264 265 267 269 272 274 276 277 278 279
156 152 147 140 133 129 116 104 88 73 62 53 48 42 38 34 30 28 28 27 26 28 30 30 34 40 39 39 38 31 36 50 54 55 55 48 51 59 60 80 95 77 65 55 34 288 269 269 269 269 275 293 291 277 271 271 268 268 270 269 268 269 267 261 259 258 256 257 259 261 263 262 262 263 264 263 264 265 266 268 270 272 274 276 278
165 163 158 151 145 137 120 107 90 70 52 42 34 27 23 14 16 19 17 15 13 19 20 18 26 29 28 30 29 23 27 42 49 48 51 45 46 49 44 57 70 52 45 41 21 336 299 284 271 268 271 277 281 279 277 280 279 278 278 277 277 277 275 270 265 264 263 263 264 264 266 266 265 265 266 266 265 265 265 266 267 269 271 273 275
173 171 169 167 160 150 136 119 100 66 36 28 18 15 10 359 0 359 358 359 1 5 6 7 10 10 14 18 19 17 19 33 44 44 42 40 43 40 31 36 42 24 16 14 359 336 320 302 282 278 278 277 280 281 281 286 286 282 281 280 280 280 279 278 272 268 267 267 268 268 269 272 271 269 270 271 270 268 267 266 265 267 269 271 274
179 177 176 176 171 163 159 148 124 47 15 11 2 359 357 352 349 345 341 337 343 351 352 353 351 344 354 3 8 8 9 23 40 39 34 36 41 35 23 19 19 11 6 3 353 336 326 317 303 294 288 285 284 281 281 284 285 283 282 279 279 279 280 281 277 273 270 268 270 273 274 277 277 275 274 276 276 273 269 267 265 265 267 270 273
185 184 183 183 182 178 178 181 191 342 347 348 348 347 346 345 343 342 334 328 335 337 330 334 337 330 336 345 349 349 355 9 26 28 22 26 31 26 20 15 13 10 4 359 351 340 331 321 311 303 295 291 287 283 283 282 282 283 282 279 279 278 279 280 279 276 273 272 275 279 280 282 282 281 281 280 280 277 273 269 265 264 266 269 272
191 191 190 192 193 193 195 207 241 306 324 329 336 339 342 340 339 340 332 331 335 333 329 330 329 323 319 324 327 328 338 348 360 12 6 5 12 15 16 12 12 12 3 356 348 342 338 328 315 307 300 297 294 289 284 280 281 284 282 280 281 280 279 279 279 277 275 277 280 283 284 286 286 287 287 284 281 279 276 272 268 267 268 269 271
195 196 196 199 202 205 214 225 257 296 313 321 328 332 337 338 337 342 340 334 331 332 335 332 324 324 318 310 307 311 323 328 333 345 341 340 351 359 3 2 3 2 355 350 345 342 340 334 328 319 308 304 302 297 291 286 284 283 282 282 282 283 283 282 281 279 281 284 286 286 287 288 290 291 291 288 284 281 278 275 272 271 271 271 273
198 200 200 203 206 212 220 232 258 289 306 317 329 332 332 334 333 339 341 335 332 334 337 334 331 333 320 305 300 304 312 314 310 314 325 325 324 333 344 350 352 350 348 345 344 344 341 338 338 333 324 319 314 307 301 296 291 286 285 285 284 284 285 286 288 287 289 292 290 289 289 290 291 292 291 290 288 285 282 280 277 275 275 276 276
200 202 203 204 207 212 219 232 253 279 303 315 329 333 330 337 342 344 341 339 344 349 350 353 359 359 341 317 307 306 308 312 307 297 309 313 306 319 333 343 345 346 347 344 342 343 343 340 338 335 331 328 325 319 311 306 301 296 293 291 288 288 288 290 293 295 295 294 293 292 291 291 292 292 291 291 290 288 286 283 282 281 280 280 281
203 204 204 205 208 213 219 230 247 270 300 312 322 328 332 347 359 358 350 351 0 4 8 16 23 19 3 346 326 320 321 319 310 289 285 296 299 313 326 336 341 346 348 346 345 343 343 343 340 337 333 330 329 325 319 314 309 306 303 300 294 291 291 292 295 297 297 296 295 294 293 294 294 293 293 293 292 291 289 287 286 286 284 284 284
206 206 207 208 210 214 220 229 243 265 291 304 306 307 326 347 358 1 359 6 12 13 16 17 17 17 8 359 352 345 342 329 315 284 268 281 287 301 316 326 334 344 347 350 353 351 350 350 346 342 338 334 332 329 325 320 317 315 314 314 309 300 297 296 297 298 298 299 297 295 296 297 296 296 294 295 295 294 291 290 290 289 288 287 286
208 208 209 211 213 216 222 230 241 259 275 278 270 272 307 338 350 2 6 9 12 13 13 5 4 13 3 352 357 0 2 340 314 302 285 284 288 295 309 318 333 346 345 352 2 360 359 359 354 349 344 339 336 336 336 333 329 327 327 326 324 318 311 305 300 298 298 300 299 298 298 298 297 297 296 295 296 294 292 291 291 292 291 290 289
210 209 211 214 215 218 225 233 242 251 256 252 251 256 289 332 356 13 9 5 7 10 8 360 1 13 4 1 6 344 351 12 304 315 307 287 288 294 306 317 335 352 349 359 10 8 8 9 6 1 354 349 344 340 339 339 336 334 334 331 327 325 320 312 305 303 303 303 303 301 300 299 298 297 297 297 296 295 293 292 292 292 291 290 290
212 212 214 217 219 222 227 234 242 248 247 246 248 248 263 315 7 17 3 359 3 5 7 3 356 358 358 11 19 359 7 40 36 336 320 309 299 296 307 316 333 350 348 357 6 9 15 16 12 10 3 357 353 348 342 339 337 335 336 334 330 327 324 320 314 309 308 307 306 305 303 302 301 299 298 297 296 295 294 292 292 291 290 290 289
215 216 218 220 222 224 229 235 240 245 245 243 241 234 239 275 4 10 1 357 2 6 11 14 7 358 349 348 1 13 28 32 19 9 338 327 323 299 289 285 294 319 329 336 344 357 8 10 8 7 2 357 354 353 350 348 348 346 344 341 338 334 329 326 321 315 312 310 309 308 307 305 304 302 301 299 297 295 294 292 291 290 289 288 287
218 219 221 223 225 228 231 235 239 243 242 238 233 228 227 233 343 356 1 5 14 20 22 29 29 15 358 343 348 8 22 18 13 24 17 350 329 307 292 270 264 273 289 304 316 333 345 351 356 357 355 354 352 353 353 355 357 355 353 349 343 339 334 328 323 319 316 314 312 311 310 309 307 305 304 302 300 297 294 292 291 290 289 288 286
221 222 224 226 228 230 232 234 238 240 238 235 230 225 223 225 277 326 354 17 32 35 33 40 42 36 33 21 3 2 2 1 5 5 7 20 360 314 299 281 269 267 274 289 297 305 310 317 332 340 343 345 344 346 345 346 350 350 349 347 343 339 335 329 324 320 317 314 313 312 311 310 309 307 305 303 301 299 296 294 291 289 288 287 286
222 224 226 227 229 231 232 234 236 237 235 232 228 223 223 233 252 269 285 30 34 39 45 46 42 43 53 45 24 17 2 356 2 357 355 7 13 350 322 303 294 284 279 285 288 290 291 296 308 318 325 330 331 333 332 330 331 332 333 335 336 335 332 328 323 318 315 313 312 311 310 309 308 306 305 303 301 299 298 295 293 290 288 286 285
224 226 228 228 229 231 233 234 235 235 232 227 224 223 226 234 242 239 231 235 35 52 65 64 55 55 63 62 47 34 20 8 1 354 354 355 350 342 327 302 297 292 286 286 285 285 287 290 295 301 308 314 316 318 316 314 314 316 318 321 323 325 324 323 321 318 315 313 312 311 310 309 308 306 305 303 301 299 297 296 294 292 289 286 284
227 228 229 229 229 230 232 234 234 232 227 223 223 225 227 232 233 229 226 224 202 106 83 73 68 68 67 62 54 40 28 15 1 353 350 347 341 334 327 318 312 306 299 295 290 288 290 290 292 295 299 301 304 306 306 305 304 305 308 311 313 315 316 316 316 317 315 313 311 310 310 310 309 308 307 304 302 300 298 296 295 293 291 288 286
229 230 230 229 228 229 231 232 232 229 224 222 223 226 228 228 228 226 224 221 211 179 117 75 61 63 55 43 34 27 22 15 5 359 347 339 338 333 328 327 320 312 307 302 297 294 294 294 295 296 297 297 298 300 302 303 303 301 303 306 306 308 310 311 312 313 313 311 310 309 309 309 309 308 307 306 304 302 300 298 295 293 291 289 287
230 231 231 229 228 229 230 231 231 228 224 222 223 225 228 227 227 228 226 224 219 206 199 203 32 36 30 22 14 7 8 6 1 0 354 345 338 329 327 327 318 311 310 306 301 299 297 297 298 298 297 295 296 298 300 302 303 301 301 303 303 304 305 307 308 309 310 310 310 309 308 308 307 306 305 304 304 302 301 299 297 295 292 290 288
231 232 231 231 230 230 231 232 231 229 226 225 225 225 226 226 228 230 228 228 224 217 227 249 276 331 356 1 359 355 354 354 351 350 348 344 336 327 327 325 318 313 312 308 303 301 300 299 298 297 296 296 296 297 298 300 302 301 300 302 302 301 302 303 305 306 308 308 308 307 307 307 306 305 304 303 303 302 301 300 298 296 294 292 289
233 233 232 231 232 232 232 233 232 230 229 228 227 225 224 225 229 231 230 230 227 224 234 247 259 280 304 324 337 341 340 338 338 337 335 335 333 329 326 323 318 314 311 308 303 301 301 303 302 299 298 297 297 297 298 299 299 299 299 301 301 300 300 301 302 303 304 305 305 306 306 306 306 305 304 304 303 302 301 300 299 297 295 293 290
235 235 234 233 232 233 233 233 233 232 230 230 229 226 224 225 229 231 232 232 228 228 238 247 255 269 284 299 315 325 328 328 329 330 329 328 328 327 323 320 317 315 311 307 303 301 299 301 303 302 301 301 301 301 301 300 298 298 299 300 301 300 299 299 299 300 301 303 304 305 306 306 305 305 304 303 303 302 301 300 299 297 295 292 290
236 236 235 235 234 233 233 234 233 232 231 230 230 229 227 227 229 231 233 232 230 231 239 247 253 265 278 289 299 310 318 322 326 329 328 325 322 320 318 315 313 312 310 307 304 302 298 299 302 302 301 303 305 304 304 302 300 300 301 301 302 302 301 301 300 299 300 302 304 305 305 306 306 305 304 303 302 301 300 300 298 297 295 292 290
237 238 237 236 236 235 234 234 233 233 232 231 230 230 229 229 230 232 233 233 231 233 239 245 251 260 268 277 288 298 307 314 321 327 326 323 317 312 311 311 309 307 306 305 303 300 298 298 301 302 302 302 304 305 304 303 303 303 303 303 304 304 304 304 302 302 302 302 303 304 305 305 305 305 304 303 302 301 300 299 298 296 294 292 290
237 238 238 238 237 236 235 234 234 234 233 232 231 230 230 230 231 232 234 233 232 233 239 243 248 256 260 266 275 286 296 305 314 320 322 322 318 312 309 308 305 302 300 300 299 298 298 299 299 300 301 301 302 303 304 303 303 303 303 303 304 305 305 305 304 303 303 303 303 304 304 305 305 305 304 303 302 301 300 299 298 296 294 292 290
237 237 238 238 238 237 237 236 234 234 233 233 231 230 230 231 232 233 234 234 233 234 239 243 246 252 257 262 269 277 286 295 303 310 315 317 317 315 313 310 305 301 298 297 296 295 296 298 298 297 298 298 299 300 301 301 301 301 302 302 303 305 305 304 303 302 303 304 304 305 305 305 305 305 304 303 302 301 300 299 298 296 294 292 290
237 237 237 238 238 238 237 236 235 234 233 233 233 231 230 231 233 234 235 234 234 236 239 243 246 251 255 260 266 272 277 285 293 300 307 311 313 313 313 312 308 304 300 297 296 296 295 295 296 296 296 295 296 298 299 299 299 300 301 301 302 304 304 303 303 302 303 304 305 305 305 305 305 305 304 304 304 303 301 299 298 296 294 292 290
238 238 238 238 238 238 238 237 235 234 233 233 233 232 231 231 232 234 235 236 237 238 240 242 246 250 254 258 263 268 273 278 284 292 298 304 307 309 309 310 310 307 302 299 298 298 297 297 296 297 296 295 295 296 297 298 298 299 300 301 302 302 303 303 303 302 302 304 305 306 306 305 304 304 304 304 304 303 301 299 298 296 295 292 290
240 239 239 239 238 238 238 238 237 235 233 232 234 233 232 231 232 234 236 237 238 239 240 242 245 249 253 256 260 265 269 273 278 285 291 296 300 304 304 306 307 307 304 301 298 298 298 298 298 298 297 295 295 295 297 298 299 299 300 301 301 302 303 303 304 304 303 304 306 306 306 306 305 304 304 304 303 302 301 300 299 298 296 293 291
241 240 240 239 239 238 238 238 237 236 233 232 233 234 233 232 233 234 236 236 238 239 241 243 245 248 252 255 259 262 266 269 273 279 285 289 294 298 300 302 304 304 304 302 299 298 297 298 298 299 298 297 296 296 297 299 300 300 301 302 302 303 304 304 305 306 305 305 307 307 306 305 304 304 304 304 304 303 302 301 300 299 297 295 292
240 241 240 239 239 239 238 238 238 237 235 233 233 234 234 234 234 235 236 237 238 240 241 243 245 248 251 255 258 260 263 267 271 276 280 283 289 293 295 298 301 302 303 303 302 299 297 296 297 298 298 298 298 297 298 298 300 300 300 301 302 303 304 305 306 307 307 308 308 307 306 305 304 303 303 304 304 304 303 302 301 299 298 296 294
240 241 240 239 239 239 239 239 239 238 236 234 234 234 235 235 235 236 237 238 239 240 242 244 245 248 251 254 257 260 262 265 268 273 277 280 285 288 290 294 298 300 302 302 302 301 298 296 296 296 296 297 298 298 298 298 299 300 301 302 303 304 305 306 307 308 308 308 308 308 307 307 305 304 304 305 305 305 304 303 301 300 298 296 294
240 240 240 240 239 239 239 240 240 239 238 236 235 235 235 236 236 236 237 238 239 241 242 244 245 248 250 253 257 259 261 264 267 271 275 278 282 285 288 291 294 297 300 301 301 301 300 299 297 294 295 296 297 298 299 299 299 299 301 303 305 306 306 307 308 309 309 309 309 309 309 308 307 306 306 306 306 306 305 303 302 300 299 297 295
240 241 241 240 240 239 239 240 240 240 240 238 237 236 236 236 237 237 238 239 240 241 242 243 245 247 250 253 256 259 261 263 265 269 273 276 280 283 285 288 290 293 297 299 301 301 302 301 299 296 295 296 297 298 299 300 300 300 302 304 306 307 307 307 308 309 311 312 313 312 311 310 309 308 308 308 308 308 307 305 304 303 301 299 298
242 243 242 241 240 239 239 239 240 241 241 240 239 237 237 237 238 239 239 239 240 241 243 244 245 247 249 252 255 258 260 262 264 267 271 274 278 281 283 285 287 291 294 297 300 301 301 302 300 298 296 296 297 298 299 300 301 302 304 305 306 307 308 308 309 311 312 314 315 314 313 313 312 311 311 311 311 310 309 308 307 306 303 302 301
244 245 245 243 242 241 239 239 239 241 242 241 240 238 238 238 239 239 240 241 241 242 243 244 246 247 249 252 255 257 259 261 263 266 269 272 275 279 281 283 285 289 293 296 299 300 300 301 300 298 297 297 297 298 299 300 302 303 304 305 306 308 308 308 310 313 314 315 316 315 314 313 313 312 313 313 312 312 311 310 309 307 306 305 304
245 247 247 246 245 243 242 241 240 241 242 242 240 239 238 238 239 240 241 242 243 243 244 245 246 248 249 252 254 257 259 260 263 265 268 270 273 275 279 282 284 287 291 295 298 298 298 299 300 299 298 297 298 299 300 302 303 303 303 305 306 307 307 309 312 315 316 316 317 316 315 314 314 313 314 314 313 312 311 311 310 309 309 308 306
246 248 248 247 247 246 245 244 243 243 244 243 241 240 239 239 239 241 242 244 244 244 245 246 248 249 250 252 254 257 258 259 261 264 266 269 271 273 277 280 282 284 288 293 296 297 297 298 299 299 299 299 298 299 301 303 303 302 302 304 305 305 307 310 313 316 317 318 318 317 316 316 315 314 315 315 314 313 313 312 312 312 312 311 308
247 248 248 248 248 248 247 247 246 246 246 244 242 240 240 239 239 240 243 245 245 246 246 247 248 250 251 252 254 256 258 259 261 263 266 268 270 272 275 278 280 282 285 290 293 294 295 298 298 298 299 299 298 299 301 302 302 301 301 303 304 305 307 311 314 316 318 319 319 318 317 317 317 316 317 317 316 315 315 314 314 314 313 312 310
247 248 249 249 250 249 249 249 249 248 248 246 244 242 241 240 240 241 242 244 246 247 247 248 249 250 251 252 253 255 257 258 260 262 264 266 268 270 273 276 277 279 283 287 289 290 291 294 296 297 298 299 299 299 301 302 301 301 301 302 303 305 308 312 315 316 317 318 318 318 318 318 319 319 318 318 317 317 316 315 314 314 314 313 312
248 249 250 250 250 250 251 251 251 251 250 248 246 245 243 242 241 242 242 244 246 247 248 249 250 251 251 252 253 254 255 257 258 260 263 265 267 269 271 273 275 277 280 284 286 287 288 289 291 295 298 298 298 299 300 301 300 300 301 302 304 307 310 313 315 317 318 317 317 318 319 320 320 320 319 319 319 318 317 316 315 315 315 315 314
249 250 251 251 251 251 251 251 251 252 252 250 248 247 246 244 243 243 243 244 246 247 248 249 250 251 251 251 252 253 254 256 257 258 261 264 266 268 269 271 274 276 279 282 283 285 287 287 288 293 297 298 298 299 300 301 300 300 301 302 304 307 311 314 315 317 319 319 318 319 320 321 322 322 320 320 319 319 319 318 317 317 317 316 315
249 250 251 251 252 251 250 250 251 253 253 252 250 249 248 246 245 245 245 245 246 247 248 249 250 251 251 251 252 253 254 255 256 256 258 262 265 267 267 270 273 275 277 281 283 283 285 286 287 291 295 297 298 299 299 299 299 299 300 301 303 306 310 313 315 317 319 320 320 321 322 322 323 323 322 321 320 320 320 321 320 319 318 318 317
250 251 251 251 252 252 251 251 251 252 253 253 251 250 249 248 246 246 246 246 247 248 249 249 250 251 251 251 251 252 254 254 254 255 256 259 263 265 266 268 270 272 274 278 282 281 281 284 285 288 292 295 298 299 298 296 296 297 298 299 302 306 309 312 315 317 320 320 321 321 322 324 324 324 324 323 322 322 322 322 321 321 320 320 318
250 250 250 251 252 253 254 254 253 254 255 254 252 249 249 248 247 247 248 248 249 250 249 249 249 250 251 251 250 251 253 253 253 253 255 257 261 264 265 266 268 270 271 275 279 279 277 279 282 285 289 293 296 297 296 294 294 295 296 298 301 304 308 311 314 317 319 321 322 321 322 324 325 325 325 325 324 323 324 324 323 323 322 321 320